TimePDT,TemperatureF,Dew PointF,Humidity,Sea Level PressureIn,VisibilityMPH,Wind Direction,Wind SpeedMPH,Gust SpeedMPH,PrecipitationIn,Events,Conditions,WindDirDegrees,DateUTC
12:15 AM,50.0,48.2,94,30.31,10.0,Calm,Calm,-,N/A,,Overcast,0,2013-05-19 07:15:00
12:35 AM,51.8,48.2,88,30.31,10.0,ENE,3.5,-,N/A,,Overcast,70,2013-05-19 07:35:00
12:55 AM,51.8,48.2,88,30.33,10.0,Calm,Calm,-,N/A,,Overcast,0,2013-05-19 07:55:00
1:15 AM,50.0,46.4,87,30.32,10.0,Calm,Calm,-,N/A,,Overcast,0,2013-05-19 08:15:00
1:35 AM,50.0,46.4,87,30.32,10.0,Calm,Calm,-,N/A,,Overcast,0,2013-05-19 08:35:00
1:55 AM,50.0,46.4,87,30.33,10.0,Calm,Calm,-,N/A,,Overcast,0,2013-05-19 08:55:00
2:15 AM,50.0,46.4,87,30.33,10.0,Calm,Calm,-,N/A,,Overcast,0,2013-05-19 09:15:00
2:35 AM,48.2,46.4,93,30.33,10.0,Calm,Calm,-,N/A,,Overcast,0,2013-05-19 09:35:00
2:55 AM,50.0,46.4,87,30.34,10.0,Calm,Calm,-,N/A,,Overcast,0,2013-05-19 09:55:00
3:15 AM,50.0,46.4,87,30.35,10.0,Calm,Calm,-,N/A,,Overcast,0,2013-05-19 10:15:00
3:35 AM,50.0,46.4,87,30.35,10.0,Calm,Calm,-,N/A,,Overcast,0,2013-05-19 10:35:00
3:55 AM,48.2,46.4,93,30.36,10.0,Calm,Calm,-,N/A,,Overcast,0,2013-05-19 10:55:00
4:15 AM,50.0,46.4,87,30.37,10.0,Calm,Calm,-,N/A,,Overcast,0,2013-05-19 11:15:00
4:35 AM,48.2,46.4,93,30.37,10.0,Calm,Calm,-,N/A,,Overcast,0,2013-05-19 11:35:00
5:15 AM,48.2,46.4,93,30.36,10.0,Calm,Calm,-,N/A,,Overcast,0,2013-05-19 12:15:00
5:35 AM,46.4,44.6,93,30.38,10.0,Calm,Calm,-,N/A,,Overcast,0,2013-05-19 12:35:00
5:55 AM,46.4,44.6,93,30.38,3.0,Calm,Calm,-,N/A,,Scattered Clouds,0,2013-05-19 12:55:00
6:15 AM,46.4,46.4,100,30.39,10.0,Calm,Calm,-,N/A,,Mostly Cloudy,0,2013-05-19 13:15:00
6:35 AM,48.2,46.4,93,30.39,10.0,Calm,Calm,-,N/A,,Overcast,0,2013-05-19 13:35:00
6:55 AM,48.2,46.4,93,30.39,10.0,Calm,Calm,-,N/A,,Mostly Cloudy,0,2013-05-19 13:55:00
7:15 AM,51.8,48.2,88,30.39,10.0,NNE,3.5,-,N/A,,Mostly Cloudy,20,2013-05-19 14:15:00
7:55 AM,53.6,48.2,82,30.40,10.0,North,3.5,-,N/A,,Overcast,10,2013-05-19 14:55:00
8:15 AM,53.6,48.2,82,30.42,10.0,NNE,3.5,-,N/A,,Overcast,20,2013-05-19 15:15:00
8:35 AM,53.6,46.4,77,30.41,10.0,Calm,Calm,-,N/A,,Overcast,0,2013-05-19 15:35:00
8:55 AM,53.6,48.2,82,30.41,10.0,East,3.5,-,N/A,,Overcast,90,2013-05-19 15:55:00
9:15 AM,53.6,46.4,77,30.41,10.0,NE,4.6,-,N/A,,Overcast,50,2013-05-19 16:15:00
9:35 AM,53.6,48.2,82,30.42,10.0,NE,3.5,-,N/A,,Overcast,50,2013-05-19 16:35:00
9:55 AM,55.4,46.4,72,30.42,10.0,Calm,Calm,-,N/A,,Overcast,0,2013-05-19 16:55:00
10:15 AM,55.4,48.2,77,30.42,10.0,Calm,Calm,-,N/A,,Overcast,0,2013-05-19 17:15:00
10:35 AM,55.4,48.2,77,30.42,10.0,South,5.8,-,N/A,,Mostly Cloudy,190,2013-05-19 17:35:00
10:55 AM,55.4,48.2,77,30.42,10.0,SSW,6.9,-,N/A,,Overcast,200,2013-05-19 17:55:00
11:15 AM,55.4,48.2,77,30.41,10.0,South,4.6,-,N/A,,Overcast,180,2013-05-19 18:15:00
11:35 AM,55.4,48.2,77,30.42,10.0,South,4.6,-,N/A,,Overcast,180,2013-05-19 18:35:00
12:15 PM,55.4,48.2,77,30.43,8.0,Calm,Calm,-,N/A,,Overcast,0,2013-05-19 19:15:00
12:35 PM,53.6,48.2,82,30.42,10.0,Calm,Calm,-,N/A,,Overcast,0,2013-05-19 19:35:00
1:15 PM,55.4,48.2,77,30.44,10.0,NE,4.6,-,N/A,,Overcast,40,2013-05-19 20:15:00
1:35 PM,55.4,48.2,77,30.44,10.0,NE,3.5,-,N/A,,Mostly Cloudy,50,2013-05-19 20:35:00
1:55 PM,57.2,48.2,72,30.43,10.0,NE,3.5,-,N/A,,Overcast,40,2013-05-19 20:55:00
2:15 PM,59.0,48.2,67,30.43,10.0,Calm,Calm,-,N/A,,Overcast,0,2013-05-19 21:15:00
2:35 PM,57.2,48.2,72,30.44,10.0,North,6.9,-,N/A,,Overcast,10,2013-05-19 21:35:00
2:55 PM,57.2,48.2,72,30.43,10.0,NNE,6.9,-,N/A,,Overcast,20,2013-05-19 21:55:00
3:15 PM,57.2,48.2,72,30.43,10.0,NNE,6.9,-,N/A,,Overcast,30,2013-05-19 22:15:00
3:35 PM,57.2,48.2,72,30.43,10.0,NNE,6.9,-,N/A,,Overcast,30,2013-05-19 22:35:00
3:55 PM,57.2,48.2,72,30.42,10.0,NNE,5.8,-,N/A,,Overcast,30,2013-05-19 22:55:00
4:15 PM,60.8,48.2,63,30.43,10.0,ENE,4.6,-,N/A,,Overcast,70,2013-05-19 23:15:00
4:35 PM,60.8,46.4,59,30.43,10.0,Calm,Calm,-,N/A,,Overcast,0,2013-05-19 23:35:00
4:55 PM,60.8,48.2,63,30.42,10.0,NNE,8.1,-,N/A,,Overcast,20,2013-05-19 23:55:00
5:15 PM,60.8,48.2,63,30.41,10.0,NNE,6.9,-,N/A,,Overcast,30,2013-05-20 00:15:00
5:35 PM,62.6,46.4,55,30.41,10.0,North,6.9,-,N/A,,Scattered Clouds,360,2013-05-20 00:35:00
5:55 PM,60.8,46.4,59,30.40,10.0,North,5.8,-,N/A,,Mostly Cloudy,10,2013-05-20 00:55:00
6:15 PM,59.0,46.4,63,30.40,10.0,NNE,5.8,-,N/A,,Overcast,30,2013-05-20 01:15:00
6:35 PM,59.0,46.4,63,30.40,10.0,NNE,5.8,-,N/A,,Overcast,30,2013-05-20 01:35:00
6:55 PM,57.2,46.4,67,30.39,10.0,NNE,5.8,-,N/A,,Overcast,30,2013-05-20 01:55:00
7:15 PM,57.2,46.4,67,30.40,10.0,NE,5.8,-,N/A,,Overcast,40,2013-05-20 02:15:00
7:35 PM,57.2,48.2,72,30.40,10.0,NNE,3.5,-,N/A,,Overcast,20,2013-05-20 02:35:00
7:55 PM,57.2,48.2,72,30.40,10.0,NNE,3.5,-,N/A,,Overcast,30,2013-05-20 02:55:00
8:15 PM,57.2,48.2,72,30.40,10.0,Calm,Calm,-,N/A,,Mostly Cloudy,0,2013-05-20 03:15:00
8:35 PM,55.4,48.2,77,30.39,10.0,Calm,Calm,-,N/A,,Mostly Cloudy,0,2013-05-20 03:35:00
9:15 PM,51.8,48.2,88,30.40,10.0,Calm,Calm,-,N/A,,Mostly Cloudy,0,2013-05-20 04:15:00
9:35 PM,46.4,44.6,93,30.38,10.0,South,4.6,-,N/A,,Clear,190,2013-05-20 04:35:00
9:55 PM,48.2,44.6,87,30.39,10.0,Calm,Calm,-,N/A,,Clear,0,2013-05-20 04:55:00
10:15 PM,46.4,44.6,93,30.39,10.0,Calm,Calm,-,N/A,,Clear,0,2013-05-20 05:15:00
10:35 PM,46.4,44.6,93,30.39,10.0,Calm,Calm,-,N/A,,Clear,0,2013-05-20 05:35:00
10:55 PM,46.4,42.8,87,30.39,10.0,Calm,Calm,-,N/A,,Clear,0,2013-05-20 05:55:00
11:15 PM,44.6,42.8,93,30.39,10.0,Calm,Calm,-,N/A,,Clear,0,2013-05-20 06:15:00
11:35 PM,44.6,42.8,93,30.39,10.0,Calm,Calm,-,N/A,,Clear,0,2013-05-20 06:35:00
11:55 PM,42.8,39.2,87,30.39,10.0,Calm,Calm,-,N/A,,Clear,0,2013-05-20 06:55:00